,,PA_Meas_PMT16A,,PR_Meas_QMR101_102,,RH_Meas_QMH101,,SR_Meas_QMS101,,TA_Meas_QMH101,,GenWind,,GenWind,
time,status,PA,status,PR,status,RH,status,SR,status,TA,status,DirAvg,status,SpdAvg,
2015-09-28, 08:35:04,VALID,919.166,VALID,0,VALID,100.736,VALID,78.9692,VALID,18.8268,VALID,31,VALID,0.854688,
2015-09-28, 08:36:04,VALID,919.157,VALID,0,VALID,100.759,VALID,81.0106,VALID,18.8658,VALID,23,VALID,0.458203,
2015-09-28, 08:37:04,VALID,919.222,VALID,0,VALID,100.766,VALID,81.8702,VALID,18.8463,VALID,32,VALID,1.03477,
2015-09-28, 08:38:04,VALID,919.203,VALID,0.2,VALID,100.759,VALID,82.6222,VALID,18.8644,VALID,41,VALID,0.719922,
2015-09-28, 08:39:04,VALID,919.222,VALID,0,VALID,100.751,VALID,81.8702,VALID,18.9048,VALID,43,VALID,1.37344,
2015-09-28, 08:40:04,VALID,919.202,VALID,0,VALID,100.774,VALID,81.4404,VALID,18.8463,VALID,56,VALID,1.12539,
2015-09-28, 08:41:04,VALID,919.229,VALID,0,VALID,100.774,VALID,81.1181,VALID,18.8853,VALID,43,VALID,1.15313,
2015-09-28, 08:42:04,VALID,919.215,VALID,0,VALID,100.774,VALID,83.8041,VALID,18.8853,VALID,16,VALID,1.10781,
2015-09-28, 08:43:04,VALID,919.227,VALID,0,VALID,100.782,VALID,85.2008,VALID,18.8853,VALID,19,VALID,0.613281,
2015-09-28, 08:44:04,VALID,919.211,VALID,0,VALID,100.766,VALID,84.4487,VALID,18.9048,VALID,19,VALID,0.775781,
2015-09-28, 08:45:04,VALID,919.247,VALID,0.2,VALID,100.766,VALID,88.639,VALID,18.9048,VALID,19,VALID,0,
2015-09-28, 08:46:04,VALID,919.238,VALID,0,VALID,100.789,VALID,93.4738,VALID,18.9243,VALID,19,VALID,0,
2015-09-28, 08:47:04,VALID,919.224,VALID,0,VALID,100.743,VALID,96.2673,VALID,18.9633,VALID,19,VALID,0,
2015-09-28, 08:48:04,VALID,919.229,VALID,0,VALID,100.743,VALID,95.4077,VALID,19.0413,VALID,20,VALID,0,
2015-09-28, 08:49:04,VALID,919.247,VALID,0,VALID,100.736,VALID,95.3003,VALID,19.1193,VALID,19,VALID,0,
2015-09-28, 08:51:04,VALID,919.25,VALID,0,VALID,100.705,VALID,90.358,VALID,19.1763,VALID,9,VALID,0,
2015-09-28, 08:53:04,VALID,919.251,VALID,0,VALID,100.728,VALID,86.9199,VALID,19.0998,VALID,31,VALID,0,
2015-09-28, 08:58:04,VALID,919.286,VALID,0.2,VALID,100.721,VALID,101.962,VALID,19.1568,VALID,23,VALID,0,
2015-09-28, 08:59:04,VALID,919.298,VALID,0,VALID,100.728,VALID,107.656,VALID,19.1568,VALID,24,VALID,0,
2015-09-28, 09:00:04,VALID,919.277,VALID,0,VALID,100.721,VALID,111.309,VALID,19.2348,VALID,24,VALID,0,
2015-09-28, 09:01:04,VALID,919.278,VALID,0,VALID,100.698,VALID,111.739,VALID,19.3143,VALID,24,VALID,0,
2015-09-28, 09:02:04,VALID,919.275,VALID,0,VALID,100.698,VALID,112.921,VALID,19.3323,VALID,12,VALID,0,
2015-09-28, 09:03:04,VALID,919.309,VALID,0.2,VALID,100.713,VALID,112.061,VALID,19.2348,VALID,9,VALID,0,
2015-09-28, 09:04:04,VALID,919.306,VALID,0,VALID,100.705,VALID,109.053,VALID,19.2543,VALID,9,VALID,0,
2015-09-28, 09:05:04,VALID,919.306,VALID,0,VALID,100.713,VALID,107.226,VALID,19.2738,VALID,10,VALID,0,
2015-09-28, 09:06:04,VALID,919.38,VALID,0,VALID,100.705,VALID,105.077,VALID,19.2933,VALID,10,VALID,0,
2015-09-28, 09:07:04,VALID,919.385,VALID,0,VALID,100.698,VALID,104.003,VALID,19.3713,VALID,10,VALID,0,
2015-09-28, 09:08:04,VALID,919.405,VALID,0.2,VALID,100.66,VALID,105.722,VALID,19.3713,VALID,10,VALID,0,
2015-09-28, 09:09:04,VALID,919.444,VALID,0,VALID,100.698,VALID,108.086,VALID,19.3113,VALID,339,VALID,0,
2015-09-28, 09:10:04,VALID,919.449,VALID,0,VALID,100.751,VALID,112.598,VALID,19.2738,VALID,339,VALID,0,
2015-09-28, 09:11:04,VALID,919.449,VALID,0,VALID,100.736,VALID,114.962,VALID,19.2558,VALID,339,VALID,0,
2015-09-28, 09:12:04,VALID,919.428,VALID,0,VALID,100.743,VALID,116.896,VALID,19.2153,VALID,339,VALID,0,
2015-09-28, 09:13:04,VALID,919.442,VALID,0,VALID,100.759,VALID,118.615,VALID,19.2348,VALID,339,VALID,0,
2015-09-28, 09:14:04,VALID,919.46,VALID,0,VALID,100.751,VALID,120.227,VALID,19.2348,VALID,339,VALID,0,
2015-09-28, 09:15:04,VALID,919.491,VALID,0,VALID,100.728,VALID,120.764,VALID,19.2153,VALID,339,VALID,0,
2015-09-28, 09:16:04,VALID,919.504,VALID,0,VALID,100.728,VALID,120.334,VALID,19.2933,VALID,339,VALID,0,
2015-09-28, 09:17:04,VALID,919.52,VALID,0,VALID,100.713,VALID,118.83,VALID,19.3128,VALID,339,VALID,0,
2015-09-28, 09:18:04,VALID,919.54,VALID,0,VALID,100.721,VALID,115.284,VALID,19.3713,VALID,339,VALID,0,
2015-09-28, 09:19:04,VALID,919.566,VALID,0,VALID,100.736,VALID,111.309,VALID,19.3323,VALID,339,VALID,0,
2015-09-28, 09:20:04,VALID,919.541,VALID,0.2,VALID,100.736,VALID,107.871,VALID,19.3128,VALID,339,VALID,0,
2015-09-28, 09:21:04,VALID,919.565,VALID,0,VALID,100.713,VALID,104.863,VALID,19.3518,VALID,339,VALID,0,
2015-09-28, 09:22:04,VALID,919.589,VALID,0,VALID,100.721,VALID,102.499,VALID,19.4298,VALID,339,VALID,0,
2015-09-28, 09:23:04,VALID,919.578,VALID,0,VALID,100.682,VALID,100.78,VALID,19.4883,VALID,339,VALID,0,
2015-09-28, 09:24:04,VALID,919.607,VALID,0,VALID,100.713,VALID,98.7384,VALID,19.4673,VALID,339,VALID,0,
2015-09-28, 09:25:04,VALID,919.604,VALID,0,VALID,100.69,VALID,96.5896,VALID,19.4673,VALID,339,VALID,0,
2015-09-28, 09:26:04,VALID,919.595,VALID,0,VALID,100.682,VALID,95.0854,VALID,19.5273,VALID,339,VALID,0,
2015-09-28, 09:35:04,VALID,919.629,VALID,0,VALID,100.713,VALID,102.284,VALID,19.4493,VALID,187,VALID,0,
2015-09-28, 09:36:04,VALID,919.613,VALID,0,VALID,100.728,VALID,105.185,VALID,19.4493,VALID,133,VALID,0,
2015-09-28, 09:37:04,VALID,919.654,VALID,0,VALID,100.713,VALID,108.623,VALID,19.5078,VALID,133,VALID,0,
2015-09-28, 09:38:04,VALID,919.66,VALID,0,VALID,100.698,VALID,112.061,VALID,19.4883,VALID,133,VALID,0,
2015-09-28, 09:39:04,VALID,919.649,VALID,0,VALID,100.713,VALID,115.069,VALID,19.4883,VALID,133,VALID,0,
2015-09-28, 09:40:04,VALID,919.634,VALID,0,VALID,100.705,VALID,119.582,VALID,19.5273,VALID,133,VALID,0,
2015-09-28, 09:41:04,VALID,919.646,VALID,0,VALID,100.721,VALID,126.351,VALID,19.4883,VALID,133,VALID,0,
2015-09-28, 09:42:04,VALID,919.647,VALID,0,VALID,100.766,VALID,133.657,VALID,19.4313,VALID,133,VALID,0,
2015-09-28, 09:43:04,VALID,919.609,VALID,0,VALID,100.751,VALID,142.789,VALID,19.4703,VALID,133,VALID,0,
2015-09-28, 09:44:04,VALID,919.649,VALID,0,VALID,100.759,VALID,149.558,VALID,19.4493,VALID,133,VALID,0,
2015-09-28, 09:45:04,VALID,919.641,VALID,0,VALID,100.736,VALID,154.285,VALID,19.5093,VALID,133,VALID,0,
2015-09-28, 09:46:04,VALID,919.63,VALID,0,VALID,100.721,VALID,159.12,VALID,19.5273,VALID,133,VALID,0,
2015-09-28, 09:47:04,VALID,919.633,VALID,0,VALID,100.743,VALID,166.856,VALID,19.5273,VALID,133,VALID,0,
2015-09-28, 09:48:04,VALID,919.611,VALID,0,VALID,100.743,VALID,175.774,VALID,19.5078,VALID,133,VALID,0,
2015-09-28, 09:49:04,VALID,919.597,VALID,0,VALID,100.766,VALID,185.766,VALID,19.4688,VALID,134,VALID,0,
2015-09-28, 09:50:04,VALID,919.615,VALID,0,VALID,100.782,VALID,195.65,VALID,19.4103,VALID,134,VALID,0,
2015-09-28, 09:51:04,VALID,919.615,VALID,0,VALID,100.766,VALID,201.237,VALID,19.4883,VALID,134,VALID,0,
2015-09-28, 09:52:04,VALID,919.639,VALID,0,VALID,100.759,VALID,201.989,VALID,19.5273,VALID,133,VALID,0,
2015-09-28, 09:53:04,VALID,919.626,VALID,0,VALID,100.766,VALID,201.774,VALID,19.6053,VALID,131,VALID,0,
2015-09-28, 09:54:04,VALID,919.625,VALID,0,VALID,100.705,VALID,198.444,VALID,19.7418,VALID,131,VALID,0,
2015-09-28, 09:55:04,VALID,919.646,VALID,0,VALID,100.69,VALID,193.502,VALID,19.8393,VALID,131,VALID,0,
2015-09-28, 09:56:04,VALID,919.633,VALID,0,VALID,100.69,VALID,188.452,VALID,19.9173,VALID,50,VALID,0,
2015-09-28, 09:57:04,VALID,919.643,VALID,0,VALID,100.675,VALID,185.981,VALID,19.9368,VALID,30,VALID,0,
2015-09-28, 09:58:04,VALID,919.642,VALID,0,VALID,100.682,VALID,189.849,VALID,19.9758,VALID,25,VALID,0,
2015-09-28, 09:59:04,VALID,919.651,VALID,0,VALID,100.713,VALID,194.791,VALID,19.7988,VALID,73,VALID,0,
2015-09-28, 10:00:04,VALID,919.651,VALID,0,VALID,100.751,VALID,202.527,VALID,19.7808,VALID,73,VALID,0,
2015-09-28, 10:01:04,VALID,919.639,VALID,0,VALID,100.774,VALID,208.221,VALID,19.7613,VALID,74,VALID,0,
2015-09-28, 10:02:04,VALID,919.623,VALID,0,VALID,100.789,VALID,204.138,VALID,19.6833,VALID,74,VALID,0,
2015-09-28, 10:03:04,VALID,919.617,VALID,0,VALID,100.774,VALID,196.295,VALID,19.7808,VALID,74,VALID,0,
2015-09-28, 10:04:04,VALID,919.613,VALID,0,VALID,100.751,VALID,192.964,VALID,19.8588,VALID,118,VALID,0,
2015-09-28, 10:05:04,VALID,919.608,VALID,0,VALID,100.713,VALID,193.716,VALID,19.9953,VALID,168,VALID,0,
2015-09-28, 10:06:04,VALID,919.59,VALID,0,VALID,100.728,VALID,200.055,VALID,19.9368,VALID,193,VALID,0,
2015-09-28, 10:07:04,VALID,919.598,VALID,0,VALID,100.743,VALID,207.469,VALID,19.8798,VALID,193,VALID,0,
2015-09-28, 10:08:04,VALID,919.583,VALID,0,VALID,100.789,VALID,213.593,VALID,19.8408,VALID,194,VALID,0,
2015-09-28, 10:09:04,VALID,919.584,VALID,0,VALID,100.759,VALID,217.031,VALID,19.9383,VALID,207,VALID,0,
2015-09-28, 10:10:04,VALID,919.62,VALID,0,VALID,100.766,VALID,217.246,VALID,19.9173,VALID,208,VALID,0,
2015-09-28, 10:11:04,VALID,919.602,VALID,0,VALID,100.804,VALID,215.097,VALID,19.8783,VALID,208,VALID,0,
2015-09-28, 10:12:04,VALID,919.594,VALID,0,VALID,100.804,VALID,212.411,VALID,19.9173,VALID,208,VALID,0,
2015-09-28, 10:13:04,VALID,919.604,VALID,0,VALID,100.812,VALID,209.618,VALID,19.9173,VALID,208,VALID,0,
2015-09-28, 10:14:04,VALID,919.617,VALID,0,VALID,100.82,VALID,205.213,VALID,19.9368,VALID,207,VALID,0,
2015-09-28, 10:15:04,VALID,919.648,VALID,0,VALID,100.789,VALID,201.022,VALID,20.0148,VALID,206,VALID,0,
2015-09-28, 10:16:04,VALID,919.62,VALID,0,VALID,100.782,VALID,198.766,VALID,20.0538,VALID,177,VALID,0,
2015-09-28, 10:17:04,VALID,919.61,VALID,0,VALID,100.789,VALID,194.576,VALID,20.0733,VALID,177,VALID,0,
2015-09-28, 10:18:04,VALID,919.629,VALID,0,VALID,100.797,VALID,191.782,VALID,20.0328,VALID,177,VALID,0,
2015-09-28, 10:19:04,VALID,919.634,VALID,0,VALID,100.797,VALID,185.981,VALID,20.0928,VALID,177,VALID,0,
2015-09-28, 10:20:04,VALID,919.602,VALID,0,VALID,100.804,VALID,180.823,VALID,20.1123,VALID,177,VALID,0,
2015-09-28, 10:21:04,VALID,919.632,VALID,0,VALID,100.82,VALID,173.517,VALID,20.0928,VALID,177,VALID,0,
2015-09-28, 10:22:04,VALID,919.61,VALID,0,VALID,100.843,VALID,168.038,VALID,20.1513,VALID,177,VALID,0,
2015-09-28, 10:23:04,VALID,919.604,VALID,0,VALID,100.835,VALID,161.377,VALID,20.2083,VALID,178,VALID,0,
2015-09-28, 10:24:04,VALID,919.597,VALID,0,VALID,100.835,VALID,155.252,VALID,20.1888,VALID,178,VALID,0,
2015-09-28, 10:25:04,VALID,919.621,VALID,0,VALID,100.843,VALID,151.385,VALID,20.2083,VALID,178,VALID,0,
2015-09-28, 10:26:04,VALID,919.618,VALID,0,VALID,100.827,VALID,150.203,VALID,20.2473,VALID,178,VALID,0,
2015-09-28, 10:27:04,VALID,919.616,VALID,0,VALID,100.873,VALID,148.591,VALID,20.2083,VALID,228,VALID,0,
2015-09-28, 10:28:04,VALID,919.602,VALID,0,VALID,100.888,VALID,152.244,VALID,20.1303,VALID,243,VALID,0,
2015-09-28, 10:29:04,VALID,919.609,VALID,0,VALID,100.957,VALID,152.352,VALID,20.0928,VALID,254,VALID,0,
2015-09-28, 10:30:04,VALID,919.603,VALID,0,VALID,100.926,VALID,155.682,VALID,20.0703,VALID,254,VALID,0,
2015-09-28, 10:31:04,VALID,919.591,VALID,0,VALID,100.919,VALID,159.443,VALID,20.1513,VALID,254,VALID,0,
2015-09-28, 10:32:04,VALID,919.574,VALID,0,VALID,100.888,VALID,164.6,VALID,20.2278,VALID,254,VALID,0,
2015-09-28, 10:33:04,VALID,919.565,VALID,0,VALID,100.865,VALID,169.327,VALID,20.3074,VALID,254,VALID,0,
2015-09-28, 10:34:04,VALID,919.543,VALID,0,VALID,100.865,VALID,173.947,VALID,20.3253,VALID,254,VALID,0,
2015-09-28, 10:35:04,VALID,919.559,VALID,0,VALID,100.843,VALID,178.245,VALID,20.4033,VALID,254,VALID,0,
2015-09-28, 10:36:04,VALID,919.527,VALID,0,VALID,100.82,VALID,179.749,VALID,20.5204,VALID,254,VALID,0,
2015-09-28, 10:37:04,VALID,919.517,VALID,0,VALID,100.797,VALID,185.443,VALID,20.5984,VALID,254,VALID,0,
2015-09-28, 10:38:04,VALID,919.485,VALID,0,VALID,100.743,VALID,194.254,VALID,20.7333,VALID,296,VALID,0,
2015-09-28, 10:39:04,VALID,919.473,VALID,0,VALID,100.751,VALID,202.204,VALID,20.7528,VALID,296,VALID,0,
2015-09-28, 10:40:04,VALID,919.461,VALID,0,VALID,100.782,VALID,211.122,VALID,20.7333,VALID,296,VALID,0,
2015-09-28, 10:41:04,VALID,919.465,VALID,0,VALID,100.789,VALID,221.759,VALID,20.7154,VALID,290,VALID,0,
2015-09-28, 10:42:04,VALID,919.438,VALID,0,VALID,100.85,VALID,230.891,VALID,20.6179,VALID,315,VALID,0,
2015-09-28, 10:43:04,VALID,919.426,VALID,0,VALID,100.873,VALID,235.511,VALID,20.6194,VALID,314,VALID,0,
2015-09-28, 10:44:04,VALID,919.421,VALID,0,VALID,100.835,VALID,244.536,VALID,20.6959,VALID,314,VALID,0,
2015-09-28, 10:45:04,VALID,919.41,VALID,0,VALID,100.812,VALID,254.313,VALID,20.8145,VALID,314,VALID,0,
2015-09-28, 10:46:04,VALID,919.416,VALID,0,VALID,100.888,VALID,257.859,VALID,20.6959,VALID,314,VALID,0,
2015-09-28, 10:47:04,VALID,919.419,VALID,0,VALID,100.865,VALID,265.165,VALID,20.7349,VALID,314,VALID,0,
2015-09-28, 10:48:04,VALID,919.386,VALID,0,VALID,100.881,VALID,269.892,VALID,20.7934,VALID,314,VALID,0,
2015-09-28, 10:49:04,VALID,919.396,VALID,0,VALID,100.911,VALID,275.372,VALID,20.756,VALID,299,VALID,0,
2015-09-28, 10:50:04,VALID,919.389,VALID,0,VALID,100.904,VALID,278.917,VALID,20.8309,VALID,321,VALID,0,
2015-09-28, 10:51:04,VALID,919.379,VALID,0,VALID,100.942,VALID,282.57,VALID,20.7918,VALID,288,VALID,0,
2015-09-28, 10:52:04,VALID,919.331,VALID,0,VALID,100.949,VALID,293.422,VALID,20.7723,VALID,287,VALID,0,
2015-09-28, 10:53:04,VALID,919.36,VALID,0,VALID,100.911,VALID,305.24,VALID,20.9089,VALID,287,VALID,0,
2015-09-28, 10:54:04,VALID,919.339,VALID,0,VALID,100.949,VALID,315.017,VALID,20.8894,VALID,275,VALID,0,
2015-09-28, 10:55:04,VALID,919.321,VALID,0,VALID,100.987,VALID,325.547,VALID,20.9089,VALID,286,VALID,0,
2015-09-28, 10:56:04,VALID,919.296,VALID,0,VALID,101.018,VALID,334.464,VALID,20.8878,VALID,286,VALID,0,
2015-09-28, 10:57:04,VALID,919.322,VALID,0,VALID,100.98,VALID,341.878,VALID,21.047,VALID,286,VALID,0,
2015-09-28, 10:58:04,VALID,919.334,VALID,0,VALID,101.079,VALID,349.399,VALID,20.93,VALID,270,VALID,0,
2015-09-28, 10:59:04,VALID,919.3,VALID,0,VALID,101.026,VALID,356.167,VALID,21.0665,VALID,328,VALID,0,
2015-09-28, 11:00:04,VALID,919.32,VALID,0,VALID,101.041,VALID,362.184,VALID,21.1055,VALID,322,VALID,0,
2015-09-28, 11:01:04,VALID,919.313,VALID,0,VALID,101.056,VALID,367.449,VALID,21.164,VALID,321,VALID,0,
2015-09-28, 11:02:04,VALID,919.315,VALID,0,VALID,101.17,VALID,373.68,VALID,21.086,VALID,297,VALID,0,
2015-09-28, 11:03:04,VALID,919.284,VALID,0,VALID,101.231,VALID,381.094,VALID,21.047,VALID,299,VALID,0,
2015-09-28, 11:04:04,VALID,919.303,VALID,0,VALID,101.292,VALID,389.152,VALID,21.0665,VALID,313,VALID,0,
2015-09-28, 11:05:04,VALID,919.281,VALID,0,VALID,101.422,VALID,395.276,VALID,20.891,VALID,234,VALID,0,
2015-09-28, 11:06:04,VALID,919.285,VALID,0,VALID,101.369,VALID,402.045,VALID,20.9869,VALID,335,VALID,0,
2015-09-28, 11:07:04,VALID,919.287,VALID,0,VALID,101.43,VALID,408.169,VALID,21.047,VALID,296,VALID,0,
2015-09-28, 11:08:04,VALID,919.263,VALID,0,VALID,101.445,VALID,403.227,VALID,21.086,VALID,260,VALID,0,
2015-09-28, 11:09:04,VALID,919.271,VALID,0,VALID,101.552,VALID,386.681,VALID,21.047,VALID,298,VALID,0,
2015-09-28, 11:10:04,VALID,919.283,VALID,0,VALID,101.536,VALID,378.3,VALID,21.1039,VALID,273,VALID,0,
2015-09-28, 11:11:04,VALID,919.265,VALID,0,VALID,101.643,VALID,379.052,VALID,21.0259,VALID,287,VALID,0,
2015-09-28, 11:12:04,VALID,919.253,VALID,0,VALID,101.597,VALID,379.16,VALID,21.1445,VALID,288,VALID,0,
2015-09-28, 11:13:04,VALID,919.231,VALID,0,VALID,101.491,VALID,374.862,VALID,21.3575,VALID,15,VALID,0,
2015-09-28, 11:14:04,VALID,919.236,VALID,0,VALID,101.635,VALID,354.019,VALID,21.416,VALID,15,VALID,0,
2015-09-28, 11:15:04,VALID,919.224,VALID,0,VALID,101.696,VALID,332.53,VALID,21.3965,VALID,16,VALID,0,
2015-09-28, 11:16:04,VALID,919.234,VALID,0,VALID,101.795,VALID,308.678,VALID,21.338,VALID,279,VALID,0,
2015-09-28, 11:17:04,VALID,919.213,VALID,0,VALID,101.795,VALID,285.901,VALID,21.3575,VALID,286,VALID,0,
2015-09-28, 11:18:04,VALID,919.231,VALID,0,VALID,101.834,VALID,270.859,VALID,21.299,VALID,300,VALID,0,
2015-09-28, 11:19:04,VALID,919.206,VALID,0,VALID,101.818,VALID,261.297,VALID,21.3185,VALID,299,VALID,0,
2015-09-28, 11:20:04,VALID,919.253,VALID,0,VALID,101.811,VALID,263.661,VALID,21.3965,VALID,311,VALID,0,
2015-09-28, 11:21:04,VALID,919.216,VALID,0,VALID,101.795,VALID,275.157,VALID,21.3575,VALID,308,VALID,0,
2015-09-28, 11:22:04,VALID,919.225,VALID,0,VALID,101.803,VALID,284.074,VALID,21.377,VALID,308,VALID,0,
2015-09-28, 11:23:04,VALID,919.199,VALID,0,VALID,101.734,VALID,273.223,VALID,21.416,VALID,289,VALID,0,
2015-09-28, 11:24:04,VALID,919.181,VALID,0,VALID,101.719,VALID,255.173,VALID,21.5119,VALID,16,VALID,0,
2015-09-28, 11:25:04,VALID,919.151,VALID,0,VALID,101.742,VALID,258.718,VALID,21.5916,VALID,15,VALID,0,
2015-09-28, 11:26:04,VALID,919.126,VALID,0,VALID,101.727,VALID,270,VALID,21.5509,VALID,14,VALID,0,
2015-09-28, 11:27:04,VALID,919.09,VALID,0,VALID,101.605,VALID,282.893,VALID,21.5119,VALID,27,VALID,0.0839844,
2015-09-28, 11:28:04,VALID,919.12,VALID,0,VALID,101.468,VALID,311.902,VALID,21.4339,VALID,48,VALID,0.921484,
2015-09-28, 11:29:04,VALID,919.083,VALID,0,VALID,101.369,VALID,352.729,VALID,21.4924,VALID,48,VALID,0,
2015-09-28, 11:30:04,VALID,919.046,VALID,0,VALID,101.414,VALID,360.68,VALID,21.6696,VALID,20,VALID,0,
2015-09-28, 11:31:04,VALID,919.031,VALID,0,VALID,101.391,VALID,387.325,VALID,21.746,VALID,23,VALID,0,
2015-09-28, 11:32:04,VALID,919.039,VALID,0,VALID,101.376,VALID,435.674,VALID,21.8045,VALID,34,VALID,0,
2015-09-28, 11:33:04,VALID,919.013,VALID,0,VALID,101.422,VALID,472.956,VALID,21.9996,VALID,34,VALID,0,
2015-09-28, 11:34:04,VALID,919.005,VALID,0,VALID,101.491,VALID,582.116,VALID,22.1574,VALID,346,VALID,0,
2015-09-28, 11:35:04,VALID,918.969,VALID,0,VALID,100.843,VALID,650.449,VALID,21.8826,VALID,331,VALID,0,
2015-09-28, 11:36:04,VALID,918.941,VALID,0,VALID,100.713,VALID,676.987,VALID,21.9606,VALID,327,VALID,0,
2015-09-28, 11:37:04,VALID,918.937,VALID,0,VALID,100.843,VALID,678.813,VALID,22.0989,VALID,268,VALID,0,
2015-09-28, 11:38:04,VALID,918.908,VALID,0,VALID,100.614,VALID,590.389,VALID,22.2142,VALID,31,VALID,0,
2015-09-28, 11:39:04,VALID,918.904,VALID,0,VALID,99.7753,VALID,588.885,VALID,22.2338,VALID,355,VALID,0,
2015-09-28, 11:40:04,VALID,918.912,VALID,0,VALID,98.525,VALID,448.997,VALID,22.1557,VALID,262,VALID,0,
2015-09-28, 11:41:04,VALID,918.877,VALID,0,VALID,98.9367,VALID,359.82,VALID,22.1362,VALID,243,VALID,0,
2015-09-28, 11:42:04,VALID,918.898,VALID,0,VALID,99.6914,VALID,334.894,VALID,22.2923,VALID,37,VALID,0,
2015-09-28, 11:43:04,VALID,918.859,VALID,0,VALID,98.1362,VALID,309.968,VALID,22.255,VALID,30,VALID,0.133203,
2015-09-28, 11:44:04,VALID,918.903,VALID,0,VALID,98.0219,VALID,302.125,VALID,22.294,VALID,4,VALID,0,
2015-09-28, 11:45:04,VALID,918.853,VALID,0,VALID,97.1681,VALID,327.588,VALID,22.2745,VALID,11,VALID,0.571094,
2015-09-28, 11:46:04,VALID,918.855,VALID,0,VALID,95.9483,VALID,360.25,VALID,22.1557,VALID,8,VALID,0,
2015-09-28, 11:47:04,VALID,918.824,VALID,0,VALID,96.7107,VALID,379.267,VALID,22.1947,VALID,21,VALID,1.50156,
2015-09-28, 11:48:04,VALID,918.804,VALID,0,VALID,97.1833,VALID,380.771,VALID,22.2533,VALID,21,VALID,0,
2015-09-28, 11:49:04,VALID,918.771,VALID,0,VALID,96.5201,VALID,385.606,VALID,22.2923,VALID,293,VALID,0,
2015-09-28, 11:50:04,VALID,918.762,VALID,0,VALID,96.0398,VALID,362.184,VALID,22.255,VALID,311,VALID,0,
2015-09-28, 11:51:04,VALID,918.769,VALID,0,VALID,95.4375,VALID,358.531,VALID,22.1752,VALID,221,VALID,0,
2015-09-28, 11:52:04,VALID,918.722,VALID,0,VALID,95.0488,VALID,393.127,VALID,22.1557,VALID,314,VALID,0,
2015-09-28, 11:53:04,VALID,918.689,VALID,0,VALID,87.4025,VALID,447.492,VALID,22.0191,VALID,250,VALID,0,
2015-09-28, 11:54:04,VALID,918.653,VALID,0,VALID,90.1316,VALID,468.014,VALID,21.9801,VALID,260,VALID,0,
2015-09-28, 11:55:04,VALID,918.654,VALID,0,VALID,96.5048,VALID,492.403,VALID,22.0387,VALID,264,VALID,0,
2015-09-28, 11:56:04,VALID,918.664,VALID,0,VALID,98.0981,VALID,501.428,VALID,22.2142,VALID,264,VALID,0,
2015-09-28, 11:57:04,VALID,918.655,VALID,0,VALID,97.6788,VALID,511.312,VALID,22.3508,VALID,278,VALID,0,
2015-09-28, 11:58:04,VALID,918.619,VALID,0,VALID,96.0017,VALID,511.312,VALID,22.4484,VALID,327,VALID,0,
2015-09-28, 11:59:04,VALID,918.629,VALID,0,VALID,95.6739,VALID,473.493,VALID,22.5264,VALID,172,VALID,0,
2015-09-28, 12:00:04,VALID,918.661,VALID,0,VALID,93.89,VALID,428.583,VALID,22.585,VALID,339,VALID,0,
2015-09-28, 12:01:04,VALID,918.648,VALID,0,VALID,90.711,VALID,414.508,VALID,22.5655,VALID,287,VALID,0,
2015-09-28, 12:02:04,VALID,918.641,VALID,0,VALID,88.424,VALID,396.888,VALID,22.585,VALID,326,VALID,0,
2015-09-28, 12:03:04,VALID,918.63,VALID,0,VALID,89.4074,VALID,395.383,VALID,22.5442,VALID,33,VALID,0,
2015-09-28, 12:04:04,VALID,918.593,VALID,0,VALID,84.9553,VALID,333.712,VALID,22.5264,VALID,292,VALID,0,
2015-09-28, 12:05:04,VALID,918.587,VALID,0,VALID,84.6047,VALID,280.529,VALID,22.4679,VALID,26,VALID,0,
2015-09-28, 12:06:04,VALID,918.556,VALID,0,VALID,87.5244,VALID,267.099,VALID,22.5069,VALID,56,VALID,0,
2015-09-28, 12:07:04,VALID,918.538,VALID,0,VALID,87.4711,VALID,248.189,VALID,22.5655,VALID,14,VALID,0,
2015-09-28, 12:08:04,VALID,918.526,VALID,0,VALID,85.7482,VALID,242.924,VALID,22.4874,VALID,2,VALID,0.0609375,
2015-09-28, 12:09:04,VALID,918.55,VALID,0,VALID,92.777,VALID,248.297,VALID,22.5069,VALID,305,VALID,0,
2015-09-28, 12:10:04,VALID,918.553,VALID,0,VALID,92.5406,VALID,237.66,VALID,22.5459,VALID,23,VALID,0,
2015-09-28, 12:11:04,VALID,918.508,VALID,0,VALID,83.6822,VALID,215.527,VALID,22.4484,VALID,14,VALID,1.45703,
2015-09-28, 12:12:04,VALID,918.542,VALID,0,VALID,88.1572,VALID,193.609,VALID,22.4094,VALID,10,VALID,0.059375,
2015-09-28, 12:13:04,VALID,918.545,VALID,0,VALID,84.841,VALID,184.154,VALID,22.3313,VALID,239,VALID,0,
2015-09-28, 12:14:04,VALID,918.496,VALID,0,VALID,85.8702,VALID,173.517,VALID,22.333,VALID,339,VALID,0,
2015-09-28, 12:15:04,VALID,918.515,VALID,0,VALID,88.2182,VALID,166.104,VALID,22.3118,VALID,339,VALID,0,
2015-09-28, 12:16:04,VALID,918.5,VALID,0,VALID,85.7863,VALID,171.691,VALID,22.2321,VALID,347,VALID,0,
2015-09-28, 12:17:04,VALID,918.497,VALID,0,VALID,85.2984,VALID,171.798,VALID,22.1557,VALID,7,VALID,0,
2015-09-28, 12:18:04,VALID,918.481,VALID,0,VALID,85.0468,VALID,167.931,VALID,22.0565,VALID,322,VALID,0,
2015-09-28, 12:19:04,VALID,918.47,VALID,0,VALID,88.6756,VALID,163.203,VALID,22.0387,VALID,6,VALID,0,
2015-09-28, 12:20:04,VALID,918.454,VALID,0,VALID,86.6401,VALID,156.864,VALID,21.9996,VALID,357,VALID,0,
2015-09-28, 12:21:04,VALID,918.429,VALID,0,VALID,86.5486,VALID,156.327,VALID,21.9411,VALID,26,VALID,0,
2015-09-28, 12:22:04,VALID,918.428,VALID,0,VALID,84.9249,VALID,157.509,VALID,21.9216,VALID,11,VALID,1.18789,
2015-09-28, 12:23:04,VALID,918.404,VALID,0,VALID,85.9083,VALID,158.583,VALID,21.9021,VALID,18,VALID,0,
2015-09-28, 12:24:04,VALID,918.388,VALID,0,VALID,85.7939,VALID,160.302,VALID,21.8631,VALID,15,VALID,0,
2015-09-28, 12:25:04,VALID,918.345,VALID,0,VALID,86.8536,VALID,165.997,VALID,21.8631,VALID,30,VALID,0,
2015-09-28, 12:26:04,VALID,918.328,VALID,0,VALID,85.8778,VALID,173.195,VALID,21.8647,VALID,40,VALID,0,
2015-09-28, 12:27:04,VALID,918.313,VALID,0,VALID,86.8002,VALID,179.319,VALID,21.8826,VALID,12,VALID,0,
2015-09-28, 12:28:04,VALID,918.293,VALID,0,VALID,85.7939,VALID,183.724,VALID,21.9233,VALID,9,VALID,0,
2015-09-28, 12:29:04,VALID,918.255,VALID,0,VALID,86.8078,VALID,186.625,VALID,21.9021,VALID,19,VALID,0,
2015-09-28, 12:30:04,VALID,918.261,VALID,0,VALID,87.4787,VALID,188.559,VALID,21.9021,VALID,10,VALID,0,
2015-09-28, 12:31:04,VALID,918.222,VALID,0,VALID,90.3832,VALID,188.237,VALID,21.9216,VALID,24,VALID,0,
2015-09-28, 12:32:04,VALID,918.187,VALID,0,VALID,88.8052,VALID,186.41,VALID,21.9606,VALID,17,VALID,0,
2015-09-28, 12:33:04,VALID,918.217,VALID,0,VALID,89.2397,VALID,183.724,VALID,22.0013,VALID,22,VALID,0,
2015-09-28, 12:34:04,VALID,918.177,VALID,0,VALID,90.6043,VALID,180.823,VALID,21.9996,VALID,33,VALID,0,
2015-09-28, 12:35:04,VALID,918.161,VALID,0,VALID,87.0975,VALID,178.03,VALID,22.0598,VALID,37,VALID,0,